STARLINK-1902 (46763 NORAD) Tracking and Keplerian Element Data

This shows tracking and keplerian element data for the satellite.

Feedback or suggestion? Click here.




ElementValue
Catalog46763
NameSTARLINK-1902
Epoch Orbit1365
Epoch Day18.25002315
Epoch Year2021
RAAN120.2693
Inclination53.0536
Eccentricity0.000122
Argument of Perigee84.4341
Mean Anonmoly258.6632
Mean Motion15.06376077
Decay Rate0.00027641
L11 46763U 20074AA 21018.25002315 .00027641 00000-0 18685-2 0 9999
L22 46763 53.0536 120.2693 0001220 84.4341 258.6632 15.06376077 13651

Live tracking and technical data element details for STARLINK-1902 (NORAD 46763). STARLINK-1902 can be tracked NOW for your location showing map with azimuth and elevation plus other details from your city location.

Track the satellite on the map from your city or location and see movement details for azimuth, elevation, latitude, longitude, range, height, and movement on the map or in text.







IsCatalogInMostPopularTable: catalog: 46763, numindb: 28
Update: records affected: 1



GetName: 46763 STARLINK-1902

Hit Count: updated at: Mon, 18 Jan 2021 17:28:29 GMT